EZY786 EGAA-LPPR

Flight info

Callsign EZY786
Flight time N/A
Altitude 36000
Route BELZU DCT DEGOS DCT TUGSI DCT TUVEN/M080F350 DCT TULTA/N0456F350 DCT KOPIP DCT KORUL DCT ELTEP/N0443F230 T328 ASPOR
Aircraft A320/M-SDE3FGHIRWY/LB1

Departure

Time 2026-05-06 19:28
Airport Belfast International Airport (EGAA)

Arrival

Time N/A
Airport Francisco de Sá Carneiro Airport (LPPR)
Time Latitude Longitude Altitude Speed Heading
2026-05-06 18:58 54.65981 -6.21926 257 ft 0 kts 64°
2026-05-06 19:02 54.65981 -6.21927 257 ft 0 kts 64°
2026-05-06 19:16 54.65981 -6.21928 257 ft 0 kts 64°
2026-05-06 19:20 54.65980 -6.21932 257 ft 3 kts 64°
2026-05-06 19:21 54.65969 -6.21973 257 ft 4 kts 67°
2026-05-06 19:21 54.65959 -6.22016 257 ft 4 kts 72°
2026-05-06 19:21 54.65952 -6.22061 257 ft 4 kts 87°
2026-05-06 19:21 54.65957 -6.22100 257 ft 2 kts 138°
2026-05-06 19:22 54.65958 -6.22102 257 ft 2 kts 140°
2026-05-06 19:23 54.65948 -6.22090 257 ft 3 kts 146°
2026-05-06 19:24 54.65912 -6.22050 257 ft 12 kts 148°
2026-05-06 19:24 54.65846 -6.21948 257 ft 14 kts 86°
2026-05-06 19:24 54.65881 -6.21779 257 ft 17 kts 66°
2026-05-06 19:24 54.65930 -6.21589 257 ft 18 kts 65°
2026-05-06 19:25 54.65985 -6.21384 257 ft 19 kts 64°
2026-05-06 19:25 54.66046 -6.21156 257 ft 23 kts 65°
2026-05-06 19:25 54.66113 -6.20898 257 ft 24 kts 66°
2026-05-06 19:25 54.66186 -6.20629 257 ft 25 kts 65°
2026-05-06 19:26 54.66262 -6.20350 257 ft 26 kts 66°
2026-05-06 19:26 54.66338 -6.20063 257 ft 23 kts 66°
2026-05-06 19:26 54.66385 -6.19890 257 ft 13 kts 68°
2026-05-06 19:26 54.66376 -6.19736 257 ft 14 kts 127°
2026-05-06 19:27 54.66295 -6.19656 259 ft 13 kts 169°
2026-05-06 19:27 54.66230 -6.19776 258 ft 20 kts 244°
2026-05-06 19:27 54.66060 -6.20406 259 ft 99 kts 245°
2026-05-06 19:27 54.65667 -6.21871 255 ft 165 kts 245°
2026-05-06 19:28 54.65140 -6.23874 613 ft 190 kts 241°
2026-05-06 19:28 54.64576 -6.25951 1161 ft 199 kts 242°
2026-05-06 19:28 54.63958 -6.28209 1522 ft 222 kts 242°
2026-05-06 19:28 54.63353 -6.30810 1945 ft 245 kts 255°
2026-05-06 19:29 54.62889 -6.33689 2701 ft 250 kts 240°
2026-05-06 19:29 54.61750 -6.35942 3592 ft 250 kts 219°
2026-05-06 19:29 54.60343 -6.37734 4485 ft 253 kts 215°
2026-05-06 19:29 54.58868 -6.39426 5324 ft 256 kts 214°
2026-05-06 19:30 54.57380 -6.41157 6157 ft 260 kts 215°
2026-05-06 19:30 54.55911 -6.42954 6925 ft 264 kts 217°
2026-05-06 19:30 54.54426 -6.44856 7702 ft 267 kts 218°
2026-05-06 19:30 54.52938 -6.46826 8484 ft 271 kts 219°
2026-05-06 19:31 54.51444 -6.48842 9270 ft 274 kts 220°
2026-05-06 19:31 54.49939 -6.50895 10045 ft 278 kts 220°
2026-05-06 19:31 54.46710 -6.55326 10576 ft 320 kts 220°